Hourly Data Report for October 03, 2017

All times are specified in Local Standard Time (LST). Add 1 hour to adjust for Daylight Saving Time where and when it is observed.

CHESTERFIELD INLET A
NUNAVUT

63°20'50.000" N
90°43'52.000" W
9.80 m
2300710
YCS

Related Data

No related data is available for this station

Download Data

Hourly Data (October 2017)
Hourly Data Report for October 3, 2017
Temp Definition
°C
Dew Point Temp Definition
°C
Rel Hum Definition
%
Wind Dir Definition
10's deg

Wind Spd Definition
km/h
Visibility Definition
km
Stn Press Definition
kPa
Hmdx Definition


Wind Chill Definition


Weather Definition


TIME
00:00 Legend Double Dagger -1.4 -3.6 85 28 31 LegendMM 100.50   -8 LegendNANA
01:00 Legend Double Dagger -1.4 -3.5 86 28 27 LegendMM 100.49   -8 LegendNANA
02:00 Legend Double Dagger -1.4 -4.0 83 29 36 LegendMM 100.49   -9 LegendNANA
03:00 Legend Double Dagger -2.0 -4.2 85 27 25 LegendMM 100.48   -8 LegendNANA
04:00 Legend Double Dagger -0.7 -4.0 78 30 55 LegendMM 100.45   -9 LegendNANA
05:00 Legend Double Dagger -1.1 -3.9 82 29 43 LegendMM 100.51   -9 LegendNANA
06:00 Legend Double Dagger -1.2 -4.3 79 29 45 LegendMM 100.54   -9 LegendNANA
07:00 Legend Double Dagger -1.5 -5.0 77 30 42 LegendMM 100.54   -10 LegendNANA
08:00 Legend Double Dagger -1.7 -5.2 77 28 36 LegendMM 100.57   -9 LegendNANA
09:00 Legend Double Dagger -1.6 -4.0 84 28 39 LegendMM 100.55   -9 LegendNANA
10:00 Legend Double Dagger -1.5 -4.1 83 29 39 LegendMM 100.57   -9 LegendNANA
11:00 Legend Double Dagger -1.4 -6.1 70 29 52 LegendMM 100.57   -10 LegendNANA
12:00 Legend Double Dagger -1.8 -6.1 73 30 49 LegendMM 100.60   -11 LegendNANA
13:00 Legend Double Dagger -1.8 -5.3 77 28 43 LegendMM 100.59   -10 LegendNANA
14:00 Legend Double Dagger -2.0 -5.1 79 29 42 LegendMM 100.60   -10 LegendNANA
15:00 Legend Double Dagger -1.9 -6.1 73 29 47 LegendMM 100.60   -11 LegendNANA
16:00 Legend Double Dagger -2.2 -5.5 78 28 39 LegendMM 100.64   -10 LegendNANA
17:00 Legend Double Dagger -2.5 -6.0 77 28 40 LegendMM 100.64   -11 LegendNANA
18:00 Legend Double Dagger -2.7 -6.6 75 28 41 LegendMM 100.62   -11 LegendNANA
19:00 Legend Double Dagger -2.6 -6.4 75 29 36 LegendMM 100.60   -10 LegendNANA
20:00 Legend Double Dagger -2.8 -6.6 75 28 35 LegendMM 100.56   -11 LegendNANA
21:00 Legend Double Dagger -3.1 -6.1 80 29 31 LegendMM 100.55   -11 LegendNANA
22:00 Legend Double Dagger -3.7 -6.4 82 28 27 LegendMM 100.53   -11 LegendNANA
23:00 Legend Double Dagger -3.7 -6.2 83 27 28 LegendMM 100.49   -11 LegendNANA

Notes on Data Quality.

Legend

  • E = Estimated
  • M = Missing
  • NA = Not Available
  • ‡ = Partner data that is not subject to review by the National Climate Archives
Date modified: